Location: Ertinghausen
(51.6624°N, 9.7874°E)
Time: 13:15:50
(UTC+00:00)

CZ-2C R/B - Pass Details

Date: 16 August 2024
Orbit: 703 x 903 km, 98.2° (Epoch: 14 September)

Event Time Altitude Azimuth Distance (km) Brightness Sun altitude
Rises 00:20:48 0° 23° (NNE) 3,224 7.6 -23.6°
Reaches altitude 10° 00:23:27 10° 36° (NE) 2,326 6.4 -23.5°
Maximum altitude 00:27:42 26° 93° (E) 1,540 4.7 -23.3°
Enters shadow 00:29:50 20° 127° (SE) 1,796 4.7 -23.2°
